GLOBALSTAR M027 (25884 NORAD) Tracking and Keplerian Element Data

This shows tracking and keplerian element data for the satellite.

Feedback or suggestion? Click here.




ElementValue
Catalog25884
NameGLOBALSTAR M027
Epoch Orbit12644
Epoch Day34.26609218
Epoch Year2025
RAAN36.9814
Inclination52.0235
Eccentricity0.0021512
Argument of Perigee135.2227
Mean Anonmoly225.0306
Mean Motion11.04370869
Decay Rate-6.1E-07
L11 25884U 99043B 25034.26609218 -.00000061 00000+0 11196-3 0 9998
L22 25884 52.0235 36.9814 0021512 135.2227 225.0306 11.04370869126444



Live tracking and technical data element details for GLOBALSTAR M027 (NORAD 25884). GLOBALSTAR M027 can be tracked NOW for your location showing map with azimuth and elevation plus other details from your city location.







IsCatalogInMostPopularTable: catalog: 25884, numindb: 336
Update: records affected: 1



GetName: 25884 GLOBALSTAR M027

Hit Count: updated at: Thu, 15 May 2025 19:42:47 GMT